sat.trackr.live / text

‹ back to catalog

NSS-11

NORAD 26554 · 2000-059A

PAYLOAD ACTIVE UNKNOWN

§ Identity

Operator
Country
SES
Launch date
2000-10-01
Launch site
TYMSC
Launch vehicle
Mass (kg)
RCS (m²)
19.95

Purposes: comms

External: N2YO · Heavens-Above · Gunter

§ Orbital elements

Epoch: 2026-09-19T21:13:41.827296Z

Period
1,436.08 min
Inclination
2.3638°
Eccentricity
0.0003018
Mean motion
1.00272829 rev/d
Perigee alt
35,773.6 km
Apogee alt
35,799.0 km
Semi-major
42,164.4 km
B*
0.0000e+0
RAAN
80.1567°
Arg perigee
107.4447°
Mean anomaly
305.6249°
Rev number
4,224

§ Raw data

NSS-111 26554U 00059A   26262.88451189  .00000021  00000+0  00000+0 0  99992 26554   2.3638  80.1567 0003018 107.4447 305.6249  1.00272829 42244

JSON: /api/v1/satellites/26554 · /tle

For live sub-satellite position, see the globe view (requires WebGL).

§ Visibility from observer

Set your observer location to see the next 7 days of passes ≥ 10°. The values pass through the URL so the page stays shareable.

No JS? Fill the form by hand. The geolocation button needs JavaScript.